Location: Poieni
(45.8000°N, 22.4500°E)
Time: 13:20:39
(UTC+00:00)

Daily predictions for brighter satellites

Satellite Brightness Start Highest point End
(mag) Time Altitude Azimuth Time Altitude Azimuth Time Altitude Azimuth
CZ-4 R/B 3.6 18:43:38 10° SSW 18:46:42 23° W 18:49:50 10° NW
Cosmos 1408 Rocket 4.4 18:44:50 10° N 18:48:58 36° ENE 18:53:04 10° SE
MOS 1-B Rocket 4.5 18:43:24 10° SSE 18:50:46 81° WSW 18:57:05 10° NNW
CSL-04 Rocket 4.3 18:47:09 10° S 18:52:19 56° W 18:57:31 10° NNW
Cosmos 1340 Rocket 4.3 18:50:52 10° SE 18:53:49 20° E 18:56:47 10° NE
USA 306 3.0 18:50:36 10° WNW 18:54:16 56° SW 18:58:06 10° SE
CZ-4C R/B 3.5 18:50:37 10° NNE 18:54:29 55° E 18:58:27 10° S
SPOT 5 2.9 18:51:38 10° SSE 18:56:01 55° ENE 19:00:16 10° N
USA 186 4.3 18:54:32 10° SW 18:57:05 21° W 18:59:40 10° NW
Ariane Rocket 4.0 18:54:19 10° SE 18:58:45 31° ENE 19:03:11 10° N
Cosmos 2279 Rocket 4.0 19:01:08 10° N 19:07:21 74° E 19:13:32 10° SSE
IRS-1C Rocket 4.2 19:03:02 10° SSE 19:08:16 69° ENE 19:13:30 10° N
Cosmos 1603 3.7 19:05:03 10° SSW 19:10:42 81° ESE 19:16:28 10° NNE
Cosmos 2369 Rocket 3.6 19:05:57 10° NW 19:10:59 35° WSW 19:16:00 10° S
Cosmos 1726 1.6 19:09:21 10° N 19:12:28 84° W 19:15:35 10° S
ERS-1 Rocket 3.2 19:09:20 10° SSE 19:14:08 56° ENE 19:19:04 10° N
Okean-O 3.1 19:11:23 10° S 19:15:43 60° WSW 19:20:07 10° NNW
USA 245 3.0 19:14:41 17° SE 19:16:06 33° ENE 19:18:25 10° N
Cosmos 1452 Rocket 3.9 19:13:12 10° NNW 19:18:24 64° WSW 19:23:34 10° S
Okean 1 3.3 19:15:18 10° S 19:19:05 58° E 19:22:55 10° NNE
USA 59 Rocket 0.6 19:20:23 10° NNW 19:24:11 51° NE 19:28:31 14° ESE
Cosmos 1500 Rocket 3.6 19:20:52 10° N 19:25:09 63° E 19:28:44 14° SSE
NOSS 2-1 (E) 4.0 19:23:09 10° NNW 19:26:59 54° NE 19:31:15 15° SE
Cosmos 1975 4.3 19:25:43 10° NNE 19:28:49 22° ENE 19:30:56 15° ESE
Meteor 1-19 Rocket 4.3 19:24:03 10° S 19:29:49 62° E 19:35:25 10° NNE
SL-8 R/B 4.2 19:26:52 10° W 19:31:35 62° N 19:36:19 10° E
Meteor 1-10 Rocket 4.4 19:27:37 10° SSW 19:33:18 79° W 19:38:56 10° N
DELTA 2 R/B (1) 4.4 19:29:38 10° SW 19:34:20 28° SSE 19:39:03 10° E
Cosmos 1805 Rocket 3.6 19:32:07 10° N 19:36:31 70° E 19:39:54 17° SSE
Sich 1 3.0 19:33:31 10° N 19:37:54 73° E 19:41:13 17° SSE
Molniya-1 4.3 19:35:08 10° S 19:38:30 48° ESE 19:46:34 10° NE
NOSS 2-1 (D) 3.7 19:36:07 10° NW 19:40:01 72° NE 19:43:47 19° SE
Cosmos 1536 3.3 19:38:19 10° NNW 19:42:10 56° W 19:45:45 12° S
ISS -1.2 19:43:00 10° WSW 19:44:08 11° SW 19:45:16 10° SSW
Meteor 1-11 Rocket 4.0 19:38:47 10° NNW 19:44:28 70° W 19:50:02 11° S
Terra 1.8 19:43:43 16° SSE 19:47:30 86° WSW 19:52:14 10° NNW
BREEZE-M DEB (TANK) 4.1 19:44:43 10° W 19:48:46 89° N 20:01:42 10° E
ARGOS Delta rocket 4.2 19:46:10 12° S 19:50:40 64° W 19:55:20 10° NNW
Cosmos 1992 Rocket 4.3 19:48:40 10° NNW 19:53:49 56° ENE 19:57:05 22° SE
Cosmos 1302 Rocket 4.1 19:51:44 10° NNW 19:56:56 72° WSW 20:00:37 19° S
NOSS 3-3 (A) 3.8 19:53:27 10° SSW 19:58:39 53° ESE 20:04:37 10° NE
Cosmos 1697 Rocket 4.0 19:56:39 10° N 20:01:30 29° NE 20:05:28 14° ESE
Meteor 2-10 4.4 19:56:35 10° NNW 20:01:59 63° W 20:06:12 16° S
USA 281 3.5 19:58:04 19° SE 20:02:48 62° ENE 20:09:19 10° NNW
Okean O Rocket 4.5 20:02:24 10° WSW 20:03:39 11° W 20:04:54 10° WNW
BREEZE-M DEB (TANK) 4.4 20:02:43 10° W 20:06:21 70° N 20:21:03 10° ENE
Landsat 4 4.3 20:07:17 20° SSW 20:09:19 44° W 20:12:41 10° NNW
MOS 1 Rocket 3.7 20:06:32 20° S 20:10:11 77° WSW 20:15:36 10° NNW
Cosmos 1980 Rocket 4.2 20:06:46 10° N 20:10:51 19° NE 20:14:54 10° E
FALCON 9 R/B 4.3 20:05:40 10° WSW 20:11:14 31° S 20:19:08 19° SE
Spot 2 Rocket 3.9 20:10:35 18° S 20:14:15 57° W 20:19:14 10° NNW
Cosmos 1340 3.4 20:13:16 10° NNW 20:16:27 39° W 20:18:12 22° SSW
NOSS 2-1 (C) 4.0 20:13:14 10° NW 20:17:13 58° SW 20:19:54 27° SSE
Cosmos 1743 Rocket 4.4 20:15:21 10° NNW 20:19:34 45° W 20:22:37 17° SSW
Meteor 2-4 Rocket 3.8 20:16:16 20° S 20:20:32 75° E 20:26:29 10° NNE
Lacrosse 4 Rocket 1.3 20:17:01 10° NNW 20:21:08 83° WSW 20:22:48 35° SSE
Lacrosse 5 rocket 3.7 20:18:57 10° NW 20:22:11 21° NNE 20:25:21 10° ENE
Cosmos 1428 Rocket 4.4 20:20:29 17° S 20:25:23 87° W 20:31:32 10° N
IRIDIUM 104 4.3 20:21:34 10° N 20:26:50 78° E 20:29:34 29° S
H-2A R/B 4.3 20:26:00 17° E 20:27:41 21° ENE 20:30:55 10° NNE
Cosmos 1340 Rocket 4.4 20:26:03 10° SW 20:29:40 33° WNW 20:33:18 10° N
NOSS 3-3 (C) 3.7 20:26:15 10° SSW 20:31:36 84° SE 20:37:56 10° NE
Cosmos 1842 4.5 20:32:57 24° E 20:33:01 24° E 20:36:00 10° NE
Cosmos 1626 1.6 20:33:21 58° S 20:33:55 82° E 20:37:08 10° N
IRIDIUM 114 4.3 20:30:43 10° N 20:35:58 87° W 20:38:40 29° S
Cosmos 1151 Rocket 4.1 20:32:39 13° SW 20:36:17 42° WNW 20:40:25 10° N
Ariane Rocket 4.1 20:34:06 17° SSW 20:37:34 36° W 20:42:16 10° NNW
Cosmos 1092 Rocket 4.0 20:37:23 21° S 20:41:44 86° W 20:48:07 10° N
ARIANE 5 R/B 3.1 20:41:04 33° ESE 20:42:26 45° ENE 20:46:34 10° N
CZ-2C R/B 4.0 20:38:15 10° NNE 20:42:33 46° E 20:43:34 39° SE
IRIDIUM 103 4.4 20:39:53 10° N 20:45:06 73° W 20:47:49 29° S
Landsat 5 4.0 20:41:58 10° N 20:45:38 49° WNW 20:47:52 22° SW
Cosmos 1833 Rocket 2.7 20:43:39 29° S 20:46:28 63° ESE 20:52:01 10° NNE
MetOp-A 4.2 20:44:25 30° SSW 20:46:36 58° W 20:51:34 10° NNW
Cosmos 1674 3.1 20:47:56 39° E 20:47:56 39° E 20:51:10 10° NNE
Cosmos 1818 4.1 20:44:57 10° SW 20:50:20 60° NW 20:55:47 10° NNE
Cosmos 1328 Rocket 3.7 20:50:56 32° SSW 20:52:51 69° W 20:57:09 10° N
Cosmos 724 4.5 20:51:21 33° S 20:53:42 51° ESE 20:59:21 10° NE
Cosmos 1656 4.0 20:49:40 10° NW 20:54:59 53° WSW 20:57:19 31° S
Cosmos 1766 3.0 20:51:40 10° N 20:55:26 88° E 20:56:04 60° SSE
Cosmos 407 Rocket 4.2 20:54:39 33° SE 20:55:38 36° ESE 21:00:23 10° NE
Cosmos 2082 Rocket 3.4 20:57:01 23° ESE 20:57:37 23° ESE 21:02:03 10° NE
Cosmos 1515 Rocket 3.5 21:01:28 51° SSE 21:02:25 70° E 21:06:44 10° NNE
Cosmos 1975 4.2 21:01:16 10° NNW 21:04:44 30° W 21:06:07 23° SW
Cosmos 2360 4.2 20:59:00 10° NNW 21:04:44 75° WSW 21:06:58 38° S
Cosmos 44 Rocket 3.2 20:59:50 10° NW 21:04:48 85° NE 21:06:18 45° SE
Cosmos 1470 2.8 21:05:09 10° N 21:08:48 56° ENE 21:09:03 55° E
USA 59 Rocket 1.9 21:10:19 10° WNW 21:13:52 23° WSW 21:15:04 21° SW
SL-8 R/B 3.6 21:09:28 10° WNW 21:14:15 89° NNE 21:16:15 35° ESE
Cosmos 1470 Rocket 3.8 21:10:00 10° NNW 21:14:23 62° W 21:15:31 45° SSW
Cosmos 1869 Rocket 4.2 21:11:47 10° N 21:15:56 41° ENE 21:16:46 37° ESE
Cosmos 1633 Rocket 4.2 21:14:15 10° NNW 21:18:17 35° W 21:19:46 27° SW
Cosmos 2251 Rocket 3.7 21:18:49 44° SE 21:19:57 52° ESE 21:25:05 10° NNE
DELTA 2 R/B (1) 3.8 21:14:48 10° WSW 21:20:06 44° S 21:20:14 44° S
MINOTAUR 4 R/B 4.2 21:19:23 10° N 21:22:00 54° NW 21:22:00 54° NW
GEOS 3 Rocket 3.9 21:17:14 10° NE 21:22:23 67° NW 21:27:03 12° SW
PSLV R/B 4.0 21:26:13 10° N 21:30:16 71° WNW 21:31:01 55° SW
Cosmos 1417 Rocket 4.4 21:25:42 10° N 21:32:02 85° E 21:34:24 41° SSE
Cosmos 1908 3.0 21:28:55 10° N 21:32:23 72° ENE 21:32:23 72° ENE
Meteor 1-15 Rocket 4.4 21:32:23 10° N 21:37:57 59° ENE 21:39:44 40° SE
Cosmos 1933 Rocket 3.6 21:35:02 10° NNW 21:39:23 66° W 21:40:05 56° SW
Cosmos 1400 Rocket 3.8 21:40:40 33° E 21:40:40 33° E 21:44:03 10° NNE
GP-B 4.1 21:36:49 10° NNE 21:40:48 32° E 21:41:17 31° E
Cosmos 1697 Rocket 3.0 21:40:18 10° NW 21:45:44 52° WSW 21:47:10 41° SSW
USA 281 4.4 21:44:56 22° SW 21:47:40 29° WSW 21:53:15 10° NW
Cosmos 1607 4.4 21:42:38 14° SW 21:48:15 64° NW 21:54:44 10° NNE
USA 267 4.2 21:43:04 10° ENE 21:48:31 28° SE 21:48:32 28° SE
In-Cosmos 22 4.2 21:49:38 46° S 21:51:25 83° E 21:57:09 10° NNE
ALOS 2 2.5 21:51:27 65° SE 21:52:04 81° ENE 21:56:29 10° N
Cosmos 1707 3.2 21:52:01 45° W 21:52:13 46° WNW 21:55:45 10° N
Orbus 7S? 4.3 21:50:39 10° WSW 21:54:59 40° NW 21:57:46 10° NE
Cosmos 1980 Rocket 2.1 21:49:54 10° NNW 21:55:38 88° WSW 21:57:19 48° SSE
Cosmos 1140 Rocket 4.3 21:55:40 25° WSW 21:58:24 47° WNW 22:03:26 10° NNE
PSLV R/B 4.0 21:54:43 10° NNE 21:59:01 46° E 21:59:13 46° ESE
Lacrosse 5 rocket 1.8 21:57:10 10° NW 22:01:18 56° NE 22:02:19 42° E
S3M 4.1 21:55:01 10° NNW 22:01:23 71° W 22:03:40 41° SSW
Cosmos 1441 Rocket 3.3 21:58:41 10° NNW 22:01:54 62° WNW 22:01:54 62° WNW
H-2A R/B 3.2 22:02:00 40° WSW 22:02:20 41° W 22:06:24 10° NNW
Cosmos 1300 3.2 21:58:59 10° N 22:02:12 44° ENE 22:02:12 44° ENE
NOSS 3-4 (A) 4.0 22:00:08 10° NW 22:07:02 63° WSW 22:10:02 39° S
NOSS 3-4 (C) 4.0 22:00:14 10° NW 22:07:08 64° WSW 22:10:09 39° S
Cosmos 1953 4.3 22:06:45 10° NNE 22:09:28 18° ENE 22:10:20 17° E
BREEZE-M DEB (TANK) 4.0 22:09:21 10° WNW 22:15:29 17° ESE 22:17:37 10° ESE
Cosmos 1707 Rocket 3.7 22:12:18 58° ESE 22:12:40 61° E 22:17:04 10° NNE
SL-14 R/B 3.3 22:13:16 64° ENE 22:13:16 64° ENE 22:16:52 10° NNE
Spot 4 4.3 22:12:43 42° SW 22:13:26 46° W 22:18:02 10° NNW
ARIANE 5 R/B 4.4 22:18:32 18° WSW 22:19:04 18° W 22:22:05 10° NW
Cosmos 2315 Rocket 4.0 22:13:26 10° NNW 22:19:45 75° W 22:21:53 44° SSW
Cosmos 2369 3.7 22:15:06 10° NNW 22:20:49 74° WSW 22:22:17 51° S
USA 234 4.3 22:18:49 10° E 22:24:57 44° NNE 22:31:06 10° NW
Meteor 1-12 Rocket 4.3 22:19:18 10° NNW 22:25:15 75° W 22:27:01 47° S
COSMOS 2406 3.2 22:27:11 45° SSW 22:29:03 85° WNW 22:34:51 10° NNE
Meteor 1-23 Rocket 4.3 22:29:34 45° SW 22:31:16 69° WNW 22:36:55 10° N
Cosmos 1763 Rocket 3.8 22:27:34 10° NNW 22:32:43 52° WSW 22:33:32 47° SW
Cosmos 540 Rocket 3.4 22:28:16 10° NNW 22:33:26 70° WSW 22:34:20 57° SSW
Cosmos 468 Rocket 3.9 22:28:26 10° NNW 22:33:43 76° WSW 22:34:47 56° S
Cosmos 1758 3.4 22:30:07 10° NNW 22:33:45 62° WNW 22:33:45 62° WNW
SL-16 R/B 2.9 22:28:42 10° NNW 22:34:13 49° ENE 22:37:20 25° ESE
H-2A R/B 1.9 22:32:47 10° NNE 22:37:14 88° ESE 22:37:41 72° S
Okean 3 3.3 22:38:35 73° ESE 22:38:41 73° E 22:42:47 10° NNE
Cosmos 1244 Rocket 4.5 22:36:58 44° SSE 22:38:57 73° E 22:45:10 10° NNE
Cosmos 2082 Rocket 2.6 22:38:48 33° SW 22:41:15 58° WNW 22:46:55 10° NNE
Cosmos 676 Rocket 4.0 22:41:34 52° SSW 22:42:55 83° WNW 22:48:18 10° NNE
Cosmos 1455 3.3 22:39:58 10° NNE 22:43:04 30° ENE 22:43:10 30° ENE
Cosmos 1908 Rocket 4.4 22:39:03 10° N 22:43:14 41° ENE 22:44:13 36° ESE
Okean 2 3.9 22:43:52 45° E 22:43:55 45° E 22:47:44 10° NNE
Aureole 3 3.6 22:45:21 47° N 22:45:21 47° N 22:47:45 10° N
Cosmos 1954 Rocket 4.2 22:43:02 44° SW 22:44:37 67° WNW 22:49:55 10° NNE
BREEZE-M DEB (TANK) 4.2 22:42:14 12° W 22:45:19 64° N 22:55:40 10° ENE
Cosmos 2360 Rocket 3.6 22:42:38 10° NNW 22:47:45 33° NE 22:52:51 10° ESE
Cosmos 1733 Rocket 3.2 22:43:35 10° NNW 22:47:51 57° W 22:48:07 56° WSW
Meteor 2-20 Rocket 4.5 22:44:14 10° N 22:50:46 89° W 22:53:07 43° S
Cosmos 2228 Rocket 3.9 22:58:02 36° WSW 22:58:51 39° WNW 23:03:07 10° N
Cosmos 1315 Rocket 3.1 23:00:04 51° ESE 23:00:09 51° E 23:03:59 10° NNE
Meteor 2-10 Rocket 4.5 22:56:38 10° NNW 23:02:00 40° W 23:03:24 34° SW
ATLAS 2AS CENTAUR R/B 4.1 22:57:27 10° NNW 23:03:48 37° NE 23:09:54 10° ESE
Cosmos 2237 4.1 23:01:12 10° NNW 23:06:59 87° WSW 23:09:03 42° SSE
Okean 1-7 2.8 23:09:28 69° SSW 23:09:58 82° W 23:14:18 10° N
Helios 1A Rocket 3.6 23:11:00 38° ESE 23:11:50 45° ENE 23:15:31 10° N
Cosmos 1346 Rocket 3.6 23:10:48 10° NNW 23:14:08 36° W 23:14:08 36° W
Cosmos 2278 3.8 23:13:52 10° NNW 23:19:30 62° WSW 23:21:03 45° SSW
SL-4 R/B 2.8 23:21:10 38° ESE 23:21:10 38° ESE 23:24:42 10° ENE
Cosmos 1703 Rocket 3.5 23:22:16 61° S 23:23:01 89° ESE 23:27:31 10° N
Timation 1 Rocket 4.3 23:25:33 42° SSW 23:27:39 79° ESE 23:33:38 10° NNE
Cosmos 2322 Rocket 2.2 23:24:02 10° NNW 23:29:44 81° ENE 23:32:46 29° SSE
Cosmos 1300 Rocket 4.0 23:26:59 10° N 23:31:14 56° ENE 23:32:35 38° SE
USA 267 3.2 23:25:29 10° NE 23:32:03 89° SE 23:35:51 28° SW
Cosmos 1238 4.4 23:31:36 10° N 23:34:34 67° NNW 23:34:34 67° NNW
SJ 16-02 1.7 23:34:22 45° SE 23:35:10 52° ESE 23:39:22 10° NNE
Cosmos 1980 Rocket 4.1 23:36:03 10° WNW 23:38:44 14° W 23:39:03 14° W
Cosmos 968 Rocket 3.4 23:37:40 46° S 23:39:13 81° ESE 23:44:22 10° NNE
Lacrosse 5 rocket 3.4 23:36:03 10° WNW 23:37:06 15° W 23:37:06 15° W
Meteor 1-4 Rocket 3.5 23:41:04 30° NW 23:41:04 30° NW 23:43:16 10° N
Cosmos 2333 Rocket 2.4 23:36:39 10° NNW 23:42:25 73° ENE 23:46:35 19° SE
Resurs 1-4 Rocket 3.5 23:38:43 10° NE 23:43:13 28° E 23:46:05 18° SE
Cosmos 1953 3.0 23:41:52 10° NNW 23:45:26 36° W 23:45:26 36° W
CZ-2D R/B 3.5 23:43:07 10° NE 23:47:53 30° E 23:51:00 18° SE
Cosmos 2242 Rocket 3.8 23:47:02 41° SSE 23:48:24 63° E 23:52:52 10° NNE
Cosmos 1850 Rocket 4.3 23:47:01 36° SW 23:48:59 59° WNW 23:54:11 10° NNE
Cosmos 1703 4.1 23:50:55 33° SE 23:51:51 39° E 23:55:21 10° NNE
Cosmos 1745 Rocket 4.1 23:49:42 35° SSW 23:52:25 66° W 23:58:43 10° N
Cosmos 841 Rocket 4.4 23:50:39 10° NW 23:55:13 31° W 23:55:58 30° WSW
Tiangong 0.5 23:58:18 12° ESE 23:58:18 12° ESE 23:58:36 10° ESE
